Wautoma, WI

5:24 PM CST on December 08, 2016 (GMT -0600)
Wautoma

Weather History for KY50 - February, 2013

Change the Weather History Date:

Tuesday, February 19, 2013

  Actual Average (KPCZ) Record (KPCZ)
Temperature  
Mean Temperature 12 °F -  
Max Temperature 21 °F 33 °F 52 °F (1981)
Min Temperature 3 °F 15 °F -16 °F (1959)
Degree Days  
Heating Degree Days 52    
Moisture  
Dew Point 4 °F    
Average Humidity 72    
Maximum Humidity 89    
Minimum Humidity 53    
Precipitation  
Precipitation 0.00 in - - ()
Sea Level Pressure  
Sea Level Pressure 29.76 in    
Wind  
Wind Speed 2 mph (NW)    
Max Wind Speed 23 mph    
Max Gust Speed 34 mph    
Visibility 3 miles    
Events Snow    
Averages and records for this station are not official NWS values.
T = Trace of Precipitation, MM = Missing Value Source: NWS Daily Summary

Daily Weather History Graph

Daily Weather History Graph

Search for Another Location

Airport or City:

Trip Planner

Search our weather history database for the weather conditions in past years. The results will help you decide how hot, cold, wet, or windy it might be!

Date:

Astronomy

Feb. 19, 2013 Rise Set
Actual Time 6:49 AM CST 5:32 PM CST
Civil Twilight 6:20 AM CST 6:02 PM CST
Nautical Twilight 5:46 AM CST 6:35 PM CST
Astronomical Twilight 5:13 AM CST 7:09 PM CST
Moon 11:57 AM CST (2/19) 2:28 AM CST (2/19)
Length of Visible Light 11h 41m
Length of Day
10h 42m
Waxing Gibbous, 67% of the Moon is Illuminated
Feb 19
Waxing Gibbous
Feb 25
Full
Mar 4
Last Quarter
Mar 11
New
Mar 19
First Quarter

Hourly Weather History & Observations

Time (CST) Temp. Windchill Dew Point Humidity Pressure Visibility Wind Dir Wind Speed Gust Speed Precip Events Conditions
12:30 AM 21.2 °F - 17.6 °F 86% 29.52 in 3.0 mi Calm Calm - 0.00 in Snow Light Snow
12:56 AM 21.0 °F - 17.1 °F 85% 29.55 in 5.0 mi Calm Calm - 0.00 in   Overcast
1:56 AM 19.0 °F - 16.2 °F 89% 29.55 in 6.0 mi Calm Calm - 0.00 in   Overcast
2:56 AM 19.4 °F - 15.8 °F 86% 29.54 in 8.0 mi Calm Calm - N/A Snow Light Snow
3:11 AM 19.4 °F - 14.0 °F 80% 29.55 in 6.0 mi Calm Calm - 0.00 in Snow Light Snow
3:20 AM 17.6 °F - 14.0 °F 86% 29.55 in 2.5 mi Calm Calm - 0.00 in Snow Light Snow
3:27 AM 17.6 °F - 12.2 °F 79% 29.54 in 1.5 mi Calm Calm - 0.00 in Snow Light Snow
3:31 AM 17.6 °F - 14.0 °F 86% 29.55 in 1.0 mi Calm Calm - 0.00 in Snow Light Snow
3:38 AM 17.6 °F - 12.2 °F 79% 29.56 in 1.2 mi Calm Calm - 0.00 in Snow Light Snow
3:42 AM 17.6 °F - 12.2 °F 79% 29.55 in 2.0 mi Calm Calm - 0.00 in Snow Light Snow
4:24 AM 17.6 °F - 12.2 °F 79% 29.58 in 3.0 mi Calm Calm - 0.00 in Snow Light Snow
4:39 AM 15.8 °F - 10.4 °F 79% 29.59 in 2.5 mi Calm Calm - 0.00 in Snow Light Snow
4:56 AM 16.2 °F - 10.0 °F 77% 29.61 in 4.0 mi Calm Calm - 0.00 in Snow Light Snow
5:15 AM 15.8 °F - 8.6 °F 73% 29.60 in 2.5 mi Calm Calm - 0.00 in Snow Light Snow
5:32 AM 14.0 °F - 8.6 °F 79% 29.60 in 1.8 mi Calm Calm - 0.00 in Snow Light Snow
5:56 AM 14.0 °F - 8.6 °F 79% 29.62 in 1.8 mi Calm Calm - N/A Snow Light Snow
6:09 AM 12.2 °F - 6.8 °F 79% 29.63 in 3.0 mi Calm Calm - 0.00 in Snow Light Snow
6:25 AM 12.2 °F - 6.8 °F 79% 29.64 in 3.0 mi Calm Calm - 0.00 in Snow Light Snow
6:31 AM 12.2 °F - 6.8 °F 79% 29.64 in 1.8 mi Calm Calm - 0.00 in Snow Light Snow
6:41 AM 12.2 °F - 6.8 °F 79% 29.65 in 3.0 mi Calm Calm - 0.00 in Snow Light Snow
6:56 AM 12.0 °F - 5.0 °F 73% 29.69 in 3.0 mi Calm Calm - 0.00 in Snow Light Snow
7:16 AM 10.4 °F - 5.0 °F 79% 29.68 in 1.2 mi Calm Calm - 0.00 in Snow Light Snow
7:19 AM 10.4 °F - 5.0 °F 79% 29.68 in 0.8 mi Calm Calm - 0.00 in Snow Light Snow
7:25 AM 10.4 °F - 5.0 °F 79% 29.69 in 1.2 mi Calm Calm - 0.00 in Snow Light Snow
7:28 AM 10.4 °F - 5.0 °F 79% 29.69 in 2.5 mi Calm Calm - 0.00 in Snow Light Snow
7:36 AM 10.4 °F - 3.2 °F 73% 29.69 in 1.2 mi Calm Calm - 0.00 in Snow Light Snow
7:39 AM 10.4 °F - 3.2 °F 73% 29.70 in 1.0 mi Calm Calm - 0.00 in Snow Light Snow
7:56 AM 10.0 °F - 4.1 °F 77% 29.74 in 0.5 mi Calm Calm - 0.00 in Snow Snow
8:24 AM 8.6 °F - 3.2 °F 79% 29.72 in 0.5 mi Calm Calm - 0.00 in Snow Snow
8:56 AM 8.6 °F - 3.2 °F 79% 29.73 in 0.2 mi Calm Calm - N/A Snow Heavy Snow
9:05 AM 8.6 °F - 3.2 °F 79% 29.74 in 0.5 mi Calm Calm - 0.00 in Snow Snow
9:18 AM 8.6 °F - 1.4 °F 73% 29.74 in 0.5 mi Calm Calm - 0.00 in Snow Snow
9:20 AM 8.6 °F - 1.4 °F 73% 29.74 in 0.8 mi Calm Calm - 0.00 in Snow Light Snow
9:39 AM 8.6 °F - 1.4 °F 73% 29.75 in 0.5 mi Calm Calm - 0.00 in Snow Snow
9:47 AM 8.6 °F - 1.4 °F 73% 29.76 in 1.0 mi Calm Calm - 0.00 in Snow Light Snow
9:56 AM 8.1 °F -12.2 °F 1.0 °F 73% 29.80 in 0.8 mi NW 21.9 mph 34.5 mph 0.00 in Snow Light Snow
10:00 AM 8.6 °F -11.9 °F 1.4 °F 73% 29.77 in 0.8 mi WNW 23.0 mph 34.5 mph 0.00 in Snow Light Snow
10:06 AM 8.6 °F -9.5 °F -0.4 °F 67% 29.77 in 1.0 mi NW 17.3 mph 34.5 mph 0.00 in Snow Blowing Snow
10:09 AM 8.6 °F -10.0 °F -0.4 °F 67% 29.78 in 1.2 mi NW 18.4 mph 27.6 mph 0.00 in Snow Light Snow
10:13 AM 8.6 °F -10.5 °F -0.4 °F 67% 29.78 in 2.0 mi NW 19.6 mph 24.2 mph 0.00 in Snow Light Snow
10:43 AM 8.6 °F - -0.4 °F 67% 29.79 in 1.2 mi Calm Calm - 0.00 in Snow Light Snow
10:56 AM 7.2 °F - -0.9 °F 69% 29.83 in 1.2 mi Calm Calm - 0.00 in   Overcast
11:09 AM 6.8 °F - -0.4 °F 72% 29.81 in 1.0 mi Calm Calm - 0.00 in   Overcast
11:18 AM 6.8 °F -13.8 °F -2.2 °F 67% 29.81 in 1.5 mi NW 21.9 mph 28.8 mph 0.00 in   Overcast
11:25 AM 6.8 °F -12.4 °F -2.2 °F 67% 29.82 in 2.0 mi WNW 18.4 mph 28.8 mph 0.00 in Snow Blowing Snow
11:36 AM 8.6 °F -10.5 °F -0.4 °F 67% 29.82 in 1.8 mi WNW 19.6 mph 31.1 mph 0.00 in Snow Blowing Snow
11:46 AM 8.6 °F -11.4 °F -0.4 °F 67% 29.82 in 2.0 mi WNW 21.9 mph 28.8 mph 0.00 in Snow Blowing Snow
11:56 AM 8.6 °F -8.3 °F -0.4 °F 67% 29.83 in 3.0 mi WNW 15.0 mph 28.8 mph N/A Snow Blowing Snow
12:14 PM 8.6 °F - -2.2 °F 62% 29.84 in 6.0 mi Calm Calm - N/A   Haze
12:56 PM 9.1 °F -10.3 °F -1.8 °F 61% 29.89 in 4.0 mi WNW 20.7 mph 31.1 mph N/A Snow Blowing Snow
1:03 PM 8.6 °F - -2.2 °F 62% 29.86 in 6.0 mi Calm Calm - 0.00 in Snow Light Snow
1:56 PM 10.0 °F - -2.9 °F 56% 29.92 in 8.0 mi Calm Calm - 0.00 in   Overcast
2:56 PM 10.4 °F - -2.2 °F 57% 29.91 in 7.0 mi Calm Calm - N/A   Overcast
3:56 PM 9.1 °F - -4.9 °F 53% 30.00 in 10.0 mi Calm Calm - 0.00 in   Mostly Cloudy
4:56 PM 7.2 °F - -6.0 °F 55% 30.04 in 10.0 mi Calm Calm - N/A   Partly Cloudy
6:56 PM 7.2 °F - -6.0 °F 55% 30.11 in 10.0 mi Calm Calm - N/A   Clear
7:56 PM 7.2 °F - -6.0 °F 55% 30.14 in 10.0 mi Calm Calm - N/A   Partly Cloudy
8:56 PM 6.1 °F - -6.9 °F 55% 30.17 in 10.0 mi Calm Calm - N/A   Clear
9:56 PM 5.0 °F - -6.9 °F 58% 30.18 in 10.0 mi Calm Calm - N/A   Clear
10:56 PM 4.1 °F - -6.9 °F 60% 30.20 in 10.0 mi Calm Calm - N/A   Clear
11:56 PM 3.0 °F - -6.9 °F 63% 30.22 in 10.0 mi Calm Calm - N/A   Clear